User: anonymous   Login
Location: Unspecified
(0.0000°N, 0.0000°E)
Time: 07:00:15
(UTC+00:00)
Language:

DSCS III A-2 - Orbit

View from above orbital plane
View from above orbital plane
View from above satellite
View from above satellite

Ground track
Ground track

The orbit data is extracted from the following two-line orbital elements,

1 20203U 89069B   24112.95466146 -.00000124  00000-0  00000-0 0  9998
2 20203  14.4139   9.8247 0011621  14.8236 180.0896  0.99122267 17194
Epoch (UTC): 21 April 2024 22:54:42
Eccentricity: 0.0011621
inclination: 14.4139°
perigee height: 36062 km
apogee height: 36161 km
right ascension of ascending node: 9.8247°
argument of perigee: 14.8236°
revolutions per day: 0.99122267
mean anomaly at epoch: 180.0896°
orbit number at epoch: 1719

The dashed part of the orbit path shows where the satellite is in the earth's shadow,  

DLR